GEFSNE_prec_meanprecacc_180.txt.gz
Total_Precipitation_Accumulation
2.02 2.14 2.28 2.37 2.27 2.04 1.95 1.94 1.90 1.71 1.49 1.38 1.23 1.05 1.17 1.28 1.46 1.30 1.18 1.17 0.98 0.79 0.69 0.71 0.76 0.82 0.95 1.04 1.23 1.49 1.79 2.05 2.19 2.01 1.75 1.65 1.61 1.48
1.83 1.95 1.97 2.03 2.21 2.17 1.98 1.96 1.88 1.74 1.60 1.42 1.31 1.18 1.37 1.29 1.40 1.25 1.26 1.32 1.04 0.92 0.83 0.77 0.74 0.67 0.65 0.67 0.66 0.73 0.89 1.08 1.31 1.45 1.48 1.40 1.42 1.39
1.44 1.57 1.72 1.97 2.26 2.27 2.21 2.08 1.96 1.81 1.58 1.43 1.22 1.15 1.47 1.56 1.45 1.32 1.28 1.26 1.04 0.95 0.88 0.81 0.77 0.70 0.64 0.58 0.56 0.56 0.62 0.71 0.78 0.87 1.02 1.11 1.23 1.30
1.19 1.32 1.50 1.78 2.12 2.33 2.40 2.29 2.13 1.98 1.84 1.68 1.34 1.10 1.23 1.57 1.70 1.62 1.39 1.23 1.11 1.03 0.92 0.83 0.78 0.71 0.65 0.62 0.60 0.58 0.57 0.59 0.66 0.69 0.74 0.87 1.08 1.24
1.19 1.24 1.30 1.49 1.68 1.89 2.07 2.19 2.18 2.15 2.13 1.89 1.58 1.31 1.25 1.38 1.63 1.65 1.56 1.51 1.29 1.22 1.22 1.10 0.97 0.87 0.76 0.67 0.65 0.62 0.57 0.55 0.57 0.63 0.67 0.73 0.84 0.98
0.97 1.06 1.16 1.21 1.36 1.50 1.61 1.80 2.01 2.24 2.32 2.18 1.91 1.59 1.46 1.35 1.46 1.61 1.68 1.62 1.53 1.34 1.30 1.20 1.19 1.12 1.00 0.85 0.71 0.65 0.65 0.67 0.66 0.66 0.69 0.74 0.75 0.79
0.89 0.89 0.95 0.98 1.04 1.22 1.27 1.48 1.81 2.07 2.19 2.26 2.13 1.83 1.56 1.39 1.18 1.28 1.54 1.76 1.75 1.65 1.65 1.42 1.29 1.16 1.07 1.03 0.96 0.83 0.74 0.70 0.69 0.71 0.76 0.80 0.86 0.88
0.88 0.87 0.89 0.83 0.82 0.88 1.01 1.14 1.44 1.65 1.79 1.87 1.89 1.73 1.52 1.38 1.33 1.30 1.37 1.51 1.56 1.44 1.47 1.56 1.50 1.36 1.26 1.14 1.16 1.19 1.11 0.99 0.90 0.87 0.87 0.88 0.94 1.02
0.91 0.93 0.89 0.84 0.88 0.89 0.91 0.93 1.00 1.17 1.39 1.59 1.61 1.51 1.56 1.47 1.39 1.29 1.31 1.33 1.31 1.41 1.47 1.52 1.52 1.42 1.35 1.34 1.37 1.28 1.22 1.13 1.04 0.99 0.98 0.97 0.95 0.97
0.88 0.84 0.90 0.91 0.94 1.00 0.93 1.00 0.96 0.94 1.03 1.08 1.22 1.41 1.56 1.72 1.69 1.58 1.59 1.53 1.44 1.53 1.55 1.49 1.39 1.32 1.23 1.21 1.28 1.16 1.08 1.04 1.02 0.99 0.95 0.93 0.90 0.91
0.87 0.86 0.93 0.98 1.10 1.15 1.06 1.11 1.08 1.04 1.01 1.12 1.21 1.32 1.39 1.50 1.65 1.69 1.65 1.61 1.48 1.41 1.42 1.36 1.26 1.28 1.27 1.15 1.08 1.08 0.99 0.94 0.92 0.91 0.90 0.89 0.90 0.98
1.00 0.99 1.18 1.13 1.10 1.05 1.03 1.18 1.15 1.00 0.93 0.97 1.03 1.11 1.14 1.24 1.35 1.39 1.52 1.59 1.50 1.36 1.19 1.17 1.18 1.22 1.26 1.16 1.04 0.97 0.93 0.94 0.90 0.87 0.87 0.89 0.98 1.00
1.09 1.05 0.99 1.12 1.06 0.99 0.98 1.04 1.17 1.06 1.00 1.03 1.03 1.03 1.05 1.08 1.11 1.17 1.29 1.42 1.47 1.32 1.16 1.19 1.19 1.17 1.08 0.95 0.95 0.92 0.88 0.87 0.87 0.87 0.91 0.96 1.02 1.01
1.08 0.98 0.88 1.11 1.07 0.97 0.89 0.92 1.06 1.13 1.13 1.17 1.15 1.06 0.98 0.94 0.93 0.99 1.08 1.19 1.29 1.28 1.24 1.24 1.20 1.16 1.11 0.99 0.87 0.86 0.88 0.90 0.90 0.85 0.83 1.00 1.09 1.15
0.93 0.95 0.96 1.00 0.92 0.88 0.96 0.99 1.02 1.05 1.14 1.19 1.08 0.93 0.86 0.84 0.90 1.00 1.11 1.20 1.28 1.24 1.19 1.18 1.20 1.24 1.24 1.11 0.97 0.90 0.91 0.89 0.88 0.85 0.81 0.84 0.90 1.05
0.74 0.78 0.82 0.79 0.78 0.82 0.89 0.98 1.04 1.09 1.11 1.05 0.94 0.81 0.82 0.87 0.88 0.91 1.03 1.15 1.30 1.29 1.25 1.30 1.32 1.34 1.36 1.21 1.11 1.03 1.00 0.97 0.93 0.95 0.92 0.87 0.84 0.87
0.82 0.75 0.77 0.77 0.75 0.75 0.80 0.84 0.89 0.90 0.93 0.91 0.88 0.86 0.85 0.86 0.86 0.85 0.92 0.98 1.00 0.99 1.04 1.14 1.33 1.46 1.45 1.41 1.34 1.16 1.12 1.10 1.12 1.16 1.14 1.04 0.89 0.82
1.12 1.11 1.11 1.04 0.94 0.84 0.77 0.72 0.70 0.73 0.77 0.82 0.84 0.82 0.81 0.84 0.89 0.90 0.93 0.98 0.96 0.88 0.85 0.90 1.12 1.40 1.55 1.48 1.33 1.22 1.19 1.12 1.14 1.29 1.30 1.20 0.98 0.86
1.16 1.17 1.15 1.01 0.86 0.79 0.69 0.60 0.56 0.58 0.66 0.67 0.70 0.74 0.73 0.76 0.82 0.86 0.87 0.92 0.94 0.89 0.86 0.88 0.99 1.15 1.31 1.23 1.08 1.00 1.06 1.12 1.21 1.29 1.33 1.22 1.01 0.90
0.86 0.87 0.80 0.72 0.65 0.55 0.52 0.50 0.47 0.51 0.60 0.62 0.63 0.63 0.63 0.67 0.70 0.78 0.81 0.82 0.86 0.85 0.84 0.82 0.83 0.90 1.00 0.99 0.91 0.83 0.86 0.99 1.08 1.10 1.11 1.13 1.10 1.14
0.54 0.49 0.43 0.41 0.40 0.38 0.38 0.40 0.41 0.45 0.51 0.59 0.60 0.57 0.56 0.59 0.63 0.67 0.74 0.82 0.83 0.82 0.82 0.76 0.72 0.83 0.93 1.03 1.00 0.78 0.72 0.86 0.97 0.99 1.04 1.15 1.16 1.09
0.30 0.30 0.28 0.27 0.30 0.30 0.32 0.34 0.36 0.40 0.45 0.52 0.54 0.57 0.56 0.54 0.56 0.61 0.66 0.69 0.70 0.70 0.71 0.73 0.77 0.86 0.91 0.97 0.93 0.79 0.71 0.74 0.94 1.14 1.10 1.09 1.05 0.95
0.26 0.27 0.26 0.27 0.30 0.30 0.33 0.36 0.41 0.43 0.45 0.52 0.53 0.54 0.57 0.58 0.57 0.60 0.63 0.64 0.66 0.68 0.70 0.74 0.78 0.85 0.89 0.91 0.93 0.92 0.89 0.84 0.87 0.99 1.03 1.11 1.00 0.80

GEFSNE_prec_meanprecacc_186.txt.gz
Total_Precipitation_Accumulation
2.02 2.14 2.28 2.37 2.27 2.05 1.96 1.94 1.90 1.71 1.51 1.40 1.24 1.06 1.18 1.31 1.49 1.32 1.19 1.18 1.00 0.81 0.73 0.76 0.83 0.88 1.01 1.11 1.31 1.59 1.93 2.17 2.26 2.05 1.79 1.68 1.64 1.53
1.83 1.96 1.97 2.03 2.22 2.17 1.98 1.96 1.88 1.75 1.62 1.44 1.32 1.19 1.38 1.30 1.43 1.27 1.27 1.33 1.05 0.92 0.84 0.79 0.77 0.70 0.68 0.70 0.70 0.79 1.00 1.18 1.40 1.52 1.52 1.44 1.45 1.43
1.44 1.57 1.72 1.97 2.26 2.27 2.21 2.08 1.96 1.82 1.59 1.44 1.23 1.15 1.47 1.58 1.48 1.35 1.31 1.28 1.05 0.97 0.89 0.82 0.78 0.71 0.65 0.58 0.57 0.58 0.64 0.73 0.81 0.90 1.05 1.14 1.26 1.33
1.20 1.33 1.51 1.79 2.13 2.34 2.41 2.29 2.13 1.98 1.85 1.69 1.36 1.11 1.23 1.58 1.72 1.66 1.43 1.26 1.13 1.06 0.94 0.83 0.78 0.71 0.65 0.62 0.60 0.58 0.57 0.60 0.66 0.70 0.75 0.88 1.09 1.27
1.19 1.25 1.30 1.50 1.69 1.90 2.08 2.20 2.18 2.15 2.13 1.89 1.58 1.32 1.25 1.39 1.64 1.66 1.57 1.52 1.30 1.23 1.23 1.10 0.97 0.87 0.76 0.67 0.65 0.62 0.57 0.55 0.57 0.64 0.68 0.74 0.85 1.00
0.97 1.07 1.17 1.21 1.37 1.51 1.61 1.80 2.01 2.24 2.32 2.18 1.91 1.59 1.47 1.36 1.46 1.62 1.68 1.62 1.53 1.34 1.30 1.20 1.19 1.12 1.00 0.85 0.71 0.65 0.65 0.67 0.67 0.66 0.70 0.74 0.76 0.80
0.89 0.89 0.96 0.98 1.04 1.22 1.27 1.49 1.81 2.07 2.19 2.26 2.14 1.84 1.57 1.40 1.19 1.29 1.54 1.76 1.75 1.65 1.65 1.42 1.29 1.16 1.07 1.03 0.96 0.83 0.74 0.70 0.70 0.71 0.76 0.80 0.86 0.89
0.88 0.87 0.89 0.84 0.82 0.88 1.01 1.14 1.44 1.65 1.79 1.87 1.89 1.74 1.53 1.39 1.34 1.31 1.37 1.51 1.57 1.44 1.47 1.56 1.50 1.36 1.26 1.14 1.16 1.19 1.11 0.99 0.90 0.87 0.88 0.88 0.95 1.02
0.91 0.94 0.90 0.84 0.89 0.90 0.91 0.93 1.00 1.17 1.39 1.59 1.61 1.51 1.57 1.48 1.40 1.30 1.31 1.33 1.32 1.41 1.47 1.52 1.52 1.42 1.35 1.34 1.37 1.28 1.22 1.13 1.04 0.99 0.98 0.97 0.95 0.97
0.88 0.84 0.91 0.92 0.94 1.00 0.94 1.01 0.96 0.94 1.03 1.08 1.22 1.42 1.57 1.73 1.70 1.59 1.60 1.54 1.45 1.53 1.55 1.49 1.39 1.32 1.23 1.21 1.28 1.16 1.08 1.04 1.02 0.99 0.96 0.93 0.90 0.91
0.87 0.86 0.94 0.98 1.11 1.16 1.06 1.11 1.08 1.04 1.01 1.12 1.21 1.32 1.40 1.52 1.66 1.70 1.66 1.62 1.48 1.41 1.42 1.36 1.26 1.28 1.27 1.15 1.09 1.08 0.99 0.94 0.92 0.91 0.90 0.89 0.91 0.99
1.00 0.99 1.18 1.13 1.11 1.05 1.03 1.18 1.15 1.00 0.93 0.97 1.03 1.11 1.15 1.24 1.36 1.40 1.52 1.59 1.50 1.36 1.19 1.17 1.18 1.22 1.26 1.16 1.04 0.97 0.93 0.94 0.90 0.87 0.87 0.89 0.98 1.00
1.09 1.05 0.99 1.12 1.06 0.99 0.98 1.04 1.17 1.06 1.00 1.03 1.03 1.03 1.05 1.08 1.12 1.17 1.29 1.42 1.47 1.32 1.16 1.19 1.19 1.17 1.08 0.95 0.95 0.92 0.88 0.87 0.87 0.87 0.91 0.96 1.02 1.01
1.08 0.98 0.88 1.11 1.07 0.98 0.89 0.92 1.07 1.13 1.13 1.17 1.15 1.07 0.98 0.95 0.94 1.00 1.08 1.19 1.29 1.28 1.24 1.24 1.20 1.16 1.11 0.99 0.87 0.86 0.88 0.90 0.90 0.85 0.83 1.00 1.09 1.15
0.94 0.95 0.96 1.00 0.92 0.88 0.97 1.00 1.02 1.05 1.14 1.20 1.08 0.93 0.87 0.85 0.91 1.01 1.12 1.21 1.28 1.25 1.19 1.18 1.20 1.24 1.24 1.11 0.97 0.90 0.91 0.89 0.88 0.85 0.82 0.84 0.90 1.05
0.75 0.78 0.82 0.79 0.79 0.83 0.90 0.99 1.04 1.09 1.11 1.05 0.94 0.82 0.82 0.87 0.89 0.92 1.03 1.16 1.30 1.29 1.25 1.30 1.32 1.34 1.36 1.21 1.11 1.03 1.00 0.97 0.93 0.95 0.92 0.87 0.84 0.87
0.84 0.76 0.77 0.77 0.76 0.76 0.81 0.85 0.89 0.90 0.93 0.91 0.88 0.86 0.85 0.87 0.87 0.86 0.93 0.98 1.00 1.00 1.04 1.14 1.33 1.46 1.45 1.41 1.34 1.16 1.12 1.11 1.12 1.16 1.14 1.04 0.89 0.82
1.18 1.14 1.12 1.05 0.95 0.84 0.77 0.72 0.71 0.73 0.77 0.82 0.84 0.82 0.81 0.84 0.89 0.91 0.94 0.98 0.97 0.88 0.85 0.90 1.12 1.40 1.55 1.48 1.33 1.22 1.19 1.12 1.14 1.29 1.30 1.20 0.99 0.86
1.21 1.20 1.18 1.02 0.88 0.81 0.70 0.61 0.57 0.59 0.67 0.68 0.71 0.74 0.74 0.77 0.83 0.86 0.87 0.92 0.94 0.90 0.86 0.88 1.00 1.15 1.31 1.23 1.08 1.00 1.06 1.12 1.21 1.29 1.33 1.23 1.02 0.91
0.89 0.90 0.82 0.75 0.68 0.57 0.53 0.51 0.48 0.52 0.61 0.63 0.64 0.64 0.65 0.69 0.72 0.79 0.82 0.83 0.87 0.86 0.84 0.83 0.83 0.90 1.01 0.99 0.92 0.83 0.87 0.99 1.09 1.10 1.11 1.14 1.10 1.14
0.55 0.51 0.45 0.43 0.44 0.42 0.41 0.40 0.41 0.45 0.52 0.60 0.62 0.60 0.59 0.61 0.65 0.69 0.76 0.83 0.84 0.84 0.84 0.77 0.72 0.84 0.94 1.04 1.01 0.79 0.72 0.86 0.97 1.00 1.05 1.16 1.17 1.10
0.30 0.30 0.29 0.30 0.33 0.33 0.34 0.35 0.36 0.40 0.46 0.52 0.56 0.59 0.58 0.56 0.59 0.64 0.68 0.71 0.72 0.71 0.72 0.74 0.79 0.87 0.92 0.98 0.94 0.80 0.72 0.75 0.95 1.15 1.11 1.10 1.07 0.98
0.26 0.27 0.26 0.28 0.31 0.31 0.34 0.37 0.41 0.44 0.46 0.53 0.54 0.56 0.59 0.60 0.59 0.62 0.66 0.66 0.69 0.71 0.72 0.76 0.80 0.86 0.90 0.92 0.95 0.93 0.90 0.85 0.88 1.00 1.04 1.12 1.02 0.82

GEFSNE_prec_meanprecacc_192.txt.gz
Total_Precipitation_Accumulation
2.02 2.14 2.28 2.38 2.29 2.06 1.97 1.95 1.92 1.73 1.52 1.41 1.26 1.08 1.20 1.32 1.51 1.34 1.21 1.19 1.01 0.82 0.76 0.82 0.93 0.97 1.10 1.22 1.42 1.73 2.11 2.29 2.36 2.14 1.86 1.75 1.70 1.57
1.84 1.96 1.97 2.03 2.22 2.18 1.99 1.96 1.89 1.77 1.64 1.45 1.34 1.21 1.39 1.31 1.44 1.29 1.29 1.35 1.06 0.93 0.85 0.81 0.81 0.75 0.73 0.76 0.77 0.90 1.19 1.34 1.51 1.60 1.59 1.50 1.51 1.48
1.44 1.57 1.72 1.97 2.27 2.28 2.22 2.09 1.97 1.83 1.61 1.45 1.25 1.17 1.49 1.59 1.50 1.38 1.34 1.31 1.07 0.97 0.89 0.82 0.79 0.73 0.68 0.61 0.61 0.64 0.72 0.83 0.90 0.98 1.12 1.20 1.31 1.37
1.21 1.34 1.52 1.81 2.15 2.35 2.42 2.31 2.15 2.00 1.86 1.70 1.38 1.13 1.25 1.60 1.74 1.68 1.45 1.29 1.15 1.07 0.94 0.84 0.79 0.72 0.66 0.64 0.62 0.62 0.62 0.65 0.72 0.75 0.80 0.93 1.14 1.31
1.19 1.25 1.30 1.50 1.69 1.90 2.08 2.20 2.18 2.16 2.13 1.90 1.59 1.33 1.26 1.39 1.65 1.67 1.59 1.55 1.32 1.24 1.24 1.11 0.98 0.87 0.77 0.67 0.66 0.64 0.60 0.58 0.60 0.67 0.71 0.76 0.88 1.04
0.97 1.07 1.17 1.21 1.37 1.51 1.62 1.80 2.02 2.25 2.33 2.19 1.92 1.60 1.47 1.36 1.47 1.63 1.70 1.65 1.57 1.37 1.32 1.22 1.19 1.13 1.01 0.85 0.71 0.65 0.65 0.68 0.68 0.68 0.71 0.76 0.78 0.82
0.89 0.90 0.96 0.98 1.04 1.23 1.27 1.49 1.81 2.08 2.20 2.27 2.14 1.84 1.58 1.40 1.19 1.29 1.55 1.78 1.79 1.71 1.70 1.45 1.30 1.16 1.08 1.03 0.96 0.84 0.74 0.70 0.70 0.71 0.76 0.80 0.87 0.89
0.88 0.87 0.89 0.84 0.82 0.89 1.02 1.15 1.45 1.66 1.80 1.87 1.90 1.74 1.53 1.40 1.35 1.31 1.38 1.53 1.59 1.49 1.54 1.60 1.52 1.37 1.26 1.14 1.16 1.19 1.11 0.99 0.90 0.88 0.88 0.88 0.95 1.02
0.91 0.94 0.90 0.84 0.89 0.90 0.91 0.93 1.00 1.18 1.39 1.59 1.62 1.52 1.57 1.49 1.41 1.31 1.32 1.34 1.33 1.43 1.51 1.57 1.54 1.43 1.35 1.34 1.37 1.28 1.22 1.13 1.04 0.99 0.98 0.97 0.95 0.97
0.88 0.84 0.91 0.92 0.94 1.00 0.94 1.01 0.97 0.95 1.03 1.08 1.22 1.42 1.57 1.73 1.71 1.60 1.61 1.55 1.46 1.55 1.57 1.52 1.42 1.33 1.24 1.22 1.28 1.16 1.08 1.04 1.02 0.99 0.96 0.93 0.91 0.91
0.87 0.86 0.94 0.98 1.11 1.16 1.07 1.12 1.08 1.04 1.01 1.12 1.21 1.32 1.40 1.52 1.67 1.71 1.67 1.63 1.50 1.43 1.43 1.38 1.28 1.29 1.27 1.15 1.09 1.08 0.99 0.94 0.92 0.91 0.90 0.89 0.91 0.99
1.00 0.99 1.18 1.13 1.11 1.06 1.03 1.18 1.15 1.01 0.94 0.98 1.03 1.11 1.15 1.24 1.36 1.41 1.54 1.61 1.52 1.37 1.20 1.18 1.19 1.22 1.26 1.16 1.04 0.97 0.93 0.94 0.90 0.87 0.87 0.89 0.98 1.00
1.09 1.05 0.99 1.12 1.06 0.99 0.98 1.04 1.18 1.07 1.00 1.03 1.03 1.03 1.05 1.08 1.12 1.18 1.30 1.44 1.49 1.33 1.16 1.20 1.19 1.18 1.09 0.95 0.95 0.92 0.88 0.87 0.87 0.87 0.91 0.96 1.02 1.01
1.08 0.98 0.88 1.11 1.07 0.98 0.90 0.92 1.07 1.14 1.14 1.18 1.16 1.07 0.98 0.95 0.94 1.01 1.10 1.21 1.31 1.30 1.25 1.24 1.21 1.16 1.12 0.99 0.87 0.86 0.88 0.90 0.90 0.85 0.83 1.00 1.09 1.15
0.94 0.95 0.97 1.01 0.93 0.89 0.97 1.01 1.03 1.06 1.15 1.20 1.09 0.94 0.87 0.85 0.92 1.03 1.14 1.23 1.30 1.27 1.20 1.19 1.20 1.24 1.25 1.11 0.97 0.90 0.91 0.89 0.88 0.85 0.82 0.84 0.91 1.05
0.75 0.78 0.82 0.79 0.79 0.83 0.90 0.99 1.05 1.10 1.11 1.05 0.94 0.82 0.83 0.88 0.90 0.93 1.07 1.19 1.32 1.31 1.27 1.31 1.32 1.34 1.36 1.21 1.11 1.03 1.00 0.97 0.94 0.95 0.93 0.88 0.84 0.88
0.85 0.77 0.78 0.78 0.77 0.77 0.81 0.85 0.90 0.90 0.94 0.92 0.88 0.87 0.86 0.88 0.88 0.87 0.95 1.02 1.03 1.02 1.05 1.15 1.33 1.46 1.45 1.41 1.34 1.17 1.12 1.11 1.13 1.17 1.14 1.04 0.89 0.83
1.20 1.15 1.13 1.06 0.97 0.85 0.78 0.73 0.71 0.73 0.77 0.82 0.84 0.82 0.82 0.85 0.90 0.92 0.96 1.02 1.01 0.91 0.86 0.91 1.12 1.40 1.55 1.48 1.33 1.22 1.19 1.13 1.14 1.29 1.30 1.21 0.99 0.87
1.22 1.21 1.19 1.04 0.90 0.82 0.71 0.62 0.57 0.59 0.67 0.68 0.71 0.74 0.74 0.78 0.84 0.88 0.89 0.95 0.97 0.93 0.88 0.89 1.00 1.16 1.31 1.24 1.08 1.00 1.06 1.12 1.21 1.30 1.33 1.23 1.02 0.91
0.90 0.90 0.83 0.77 0.70 0.58 0.54 0.52 0.49 0.53 0.61 0.63 0.64 0.64 0.65 0.69 0.73 0.80 0.83 0.84 0.88 0.88 0.86 0.84 0.84 0.91 1.02 1.00 0.93 0.84 0.87 0.99 1.09 1.11 1.11 1.14 1.10 1.15
0.56 0.51 0.46 0.45 0.46 0.43 0.42 0.41 0.42 0.46 0.53 0.60 0.62 0.60 0.59 0.62 0.66 0.70 0.76 0.84 0.85 0.85 0.85 0.78 0.73 0.85 0.95 1.05 1.02 0.79 0.72 0.86 0.98 1.01 1.06 1.18 1.18 1.11
0.30 0.30 0.29 0.30 0.33 0.34 0.36 0.38 0.38 0.41 0.46 0.53 0.56 0.59 0.58 0.57 0.60 0.65 0.69 0.72 0.73 0.72 0.73 0.75 0.80 0.88 0.93 1.00 0.96 0.81 0.73 0.76 0.95 1.15 1.12 1.12 1.09 1.00
0.26 0.27 0.26 0.28 0.32 0.32 0.35 0.39 0.43 0.45 0.47 0.54 0.55 0.56 0.60 0.61 0.60 0.63 0.67 0.67 0.70 0.72 0.73 0.77 0.81 0.88 0.92 0.94 0.98 0.96 0.92 0.86 0.89 1.01 1.05 1.13 1.03 0.83

GEFSNE_prec_meanprecacc_198.txt.gz
Total_Precipitation_Accumulation
2.03 2.14 2.29 2.38 2.29 2.07 1.98 1.97 1.94 1.76 1.55 1.42 1.27 1.10 1.21 1.33 1.51 1.35 1.21 1.19 1.01 0.83 0.76 0.83 0.95 0.99 1.13 1.25 1.46 1.79 2.22 2.41 2.49 2.28 1.99 1.86 1.79 1.65
1.84 1.96 1.98 2.04 2.23 2.18 2.00 1.97 1.90 1.79 1.66 1.46 1.36 1.22 1.41 1.32 1.45 1.30 1.30 1.35 1.07 0.94 0.85 0.82 0.83 0.77 0.75 0.79 0.81 0.96 1.34 1.46 1.62 1.71 1.69 1.59 1.59 1.56
1.44 1.57 1.72 1.98 2.27 2.28 2.22 2.10 1.98 1.84 1.63 1.47 1.26 1.19 1.50 1.61 1.52 1.40 1.36 1.32 1.08 0.98 0.90 0.82 0.80 0.75 0.69 0.63 0.63 0.68 0.81 0.92 0.98 1.08 1.22 1.29 1.40 1.46
1.21 1.34 1.52 1.81 2.15 2.36 2.43 2.31 2.15 2.01 1.88 1.72 1.39 1.15 1.28 1.62 1.76 1.70 1.47 1.29 1.15 1.07 0.95 0.85 0.79 0.73 0.67 0.65 0.64 0.64 0.65 0.68 0.78 0.82 0.88 1.01 1.22 1.37
1.19 1.25 1.30 1.50 1.70 1.90 2.08 2.20 2.19 2.16 2.14 1.90 1.59 1.33 1.27 1.40 1.65 1.68 1.60 1.55 1.32 1.24 1.24 1.12 0.98 0.88 0.77 0.68 0.67 0.64 0.61 0.60 0.63 0.72 0.77 0.83 0.95 1.10
0.97 1.07 1.17 1.21 1.37 1.51 1.62 1.81 2.02 2.26 2.33 2.19 1.92 1.60 1.47 1.36 1.47 1.63 1.70 1.66 1.57 1.38 1.33 1.22 1.20 1.13 1.02 0.86 0.72 0.66 0.66 0.68 0.68 0.69 0.73 0.79 0.82 0.88
0.89 0.90 0.96 0.98 1.05 1.23 1.27 1.49 1.82 2.08 2.20 2.28 2.15 1.85 1.58 1.40 1.19 1.30 1.56 1.78 1.80 1.71 1.70 1.45 1.31 1.17 1.09 1.04 0.97 0.84 0.75 0.71 0.70 0.72 0.76 0.81 0.88 0.91
0.88 0.87 0.89 0.84 0.82 0.89 1.02 1.15 1.45 1.66 1.80 1.88 1.90 1.75 1.53 1.40 1.35 1.31 1.39 1.53 1.59 1.49 1.54 1.61 1.54 1.38 1.27 1.15 1.16 1.20 1.11 0.99 0.91 0.88 0.88 0.88 0.95 1.03
0.91 0.94 0.90 0.84 0.89 0.90 0.92 0.93 1.00 1.18 1.39 1.60 1.62 1.53 1.58 1.49 1.41 1.31 1.32 1.34 1.33 1.43 1.51 1.59 1.57 1.46 1.38 1.36 1.38 1.28 1.22 1.13 1.05 1.00 0.99 0.97 0.95 0.97
0.88 0.84 0.91 0.92 0.94 1.01 0.94 1.01 0.97 0.95 1.03 1.08 1.22 1.42 1.57 1.74 1.71 1.60 1.61 1.55 1.46 1.55 1.57 1.53 1.44 1.36 1.26 1.24 1.30 1.18 1.09 1.04 1.02 1.00 0.96 0.93 0.91 0.91
0.87 0.86 0.94 0.98 1.11 1.16 1.07 1.12 1.08 1.04 1.01 1.12 1.21 1.32 1.40 1.52 1.67 1.72 1.67 1.64 1.50 1.43 1.44 1.39 1.28 1.30 1.29 1.18 1.11 1.10 1.00 0.95 0.93 0.91 0.91 0.89 0.91 0.99
1.00 0.99 1.18 1.13 1.11 1.06 1.03 1.18 1.15 1.01 0.94 0.98 1.03 1.11 1.15 1.25 1.37 1.41 1.54 1.61 1.52 1.38 1.21 1.19 1.20 1.24 1.27 1.17 1.06 0.99 0.95 0.96 0.91 0.87 0.87 0.89 0.98 1.00
1.10 1.06 0.99 1.13 1.07 0.99 0.99 1.04 1.18 1.07 1.00 1.04 1.03 1.04 1.06 1.09 1.13 1.19 1.31 1.44 1.49 1.34 1.17 1.21 1.20 1.19 1.10 0.96 0.96 0.93 0.89 0.88 0.88 0.88 0.92 0.96 1.02 1.01
1.08 0.98 0.88 1.11 1.07 0.98 0.90 0.92 1.07 1.14 1.14 1.18 1.16 1.07 0.99 0.95 0.95 1.01 1.10 1.21 1.31 1.30 1.26 1.26 1.22 1.17 1.12 0.99 0.88 0.86 0.88 0.90 0.90 0.85 0.83 1.00 1.09 1.15
0.94 0.95 0.97 1.01 0.93 0.89 0.97 1.01 1.04 1.06 1.15 1.20 1.09 0.94 0.87 0.86 0.92 1.03 1.15 1.23 1.31 1.27 1.21 1.20 1.22 1.25 1.25 1.12 0.98 0.90 0.91 0.89 0.88 0.85 0.82 0.84 0.91 1.06
0.76 0.79 0.82 0.80 0.79 0.84 0.90 1.00 1.05 1.10 1.12 1.06 0.95 0.82 0.83 0.88 0.90 0.94 1.07 1.19 1.33 1.31 1.27 1.32 1.34 1.36 1.37 1.22 1.12 1.04 1.01 0.97 0.94 0.95 0.93 0.88 0.84 0.88
0.86 0.77 0.78 0.78 0.77 0.77 0.82 0.85 0.90 0.91 0.94 0.92 0.88 0.87 0.86 0.88 0.89 0.87 0.96 1.03 1.04 1.02 1.06 1.16 1.35 1.48 1.47 1.42 1.35 1.17 1.13 1.11 1.13 1.17 1.14 1.04 0.89 0.83
1.20 1.16 1.14 1.06 0.97 0.86 0.78 0.73 0.72 0.75 0.78 0.83 0.84 0.82 0.83 0.87 0.92 0.93 0.97 1.02 1.01 0.91 0.87 0.92 1.14 1.42 1.57 1.50 1.35 1.23 1.19 1.13 1.14 1.29 1.31 1.21 0.99 0.87
1.23 1.22 1.19 1.05 0.91 0.82 0.72 0.62 0.58 0.60 0.68 0.69 0.72 0.75 0.76 0.80 0.86 0.89 0.90 0.96 0.99 0.95 0.90 0.90 1.01 1.17 1.33 1.25 1.10 1.01 1.07 1.13 1.22 1.30 1.34 1.24 1.03 0.91
0.90 0.91 0.84 0.77 0.70 0.59 0.55 0.52 0.49 0.54 0.62 0.64 0.65 0.65 0.67 0.72 0.74 0.81 0.85 0.86 0.91 0.92 0.89 0.85 0.85 0.92 1.03 1.01 0.94 0.85 0.88 1.00 1.10 1.12 1.12 1.15 1.11 1.15
0.56 0.51 0.46 0.45 0.46 0.44 0.42 0.42 0.42 0.46 0.53 0.61 0.63 0.61 0.61 0.63 0.67 0.71 0.78 0.87 0.88 0.88 0.88 0.79 0.74 0.86 0.96 1.06 1.03 0.80 0.73 0.87 0.98 1.01 1.07 1.18 1.19 1.12
0.30 0.30 0.30 0.30 0.34 0.34 0.37 0.38 0.38 0.41 0.47 0.53 0.57 0.61 0.60 0.59 0.61 0.67 0.71 0.74 0.74 0.74 0.75 0.77 0.81 0.90 0.95 1.01 0.97 0.83 0.75 0.77 0.97 1.17 1.14 1.13 1.10 1.02
0.26 0.27 0.26 0.28 0.32 0.32 0.36 0.39 0.43 0.46 0.47 0.54 0.56 0.57 0.61 0.62 0.61 0.65 0.69 0.68 0.71 0.73 0.74 0.79 0.82 0.89 0.94 0.97 1.00 0.98 0.94 0.88 0.91 1.02 1.06 1.15 1.05 0.85

GEFSNE_prec_meanprecacc_204.txt.gz
Total_Precipitation_Accumulation
2.03 2.14 2.29 2.38 2.30 2.08 1.99 1.98 1.95 1.77 1.56 1.43 1.28 1.10 1.22 1.33 1.51 1.35 1.22 1.20 1.02 0.84 0.77 0.84 0.96 1.00 1.14 1.27 1.50 1.83 2.24 2.43 2.52 2.31 2.03 1.91 1.85 1.71
1.84 1.96 1.98 2.04 2.23 2.18 2.00 1.98 1.91 1.79 1.66 1.47 1.36 1.22 1.41 1.33 1.45 1.30 1.30 1.36 1.07 0.94 0.86 0.82 0.83 0.77 0.76 0.80 0.83 0.99 1.37 1.50 1.66 1.75 1.74 1.62 1.62 1.59
1.44 1.57 1.72 1.98 2.27 2.29 2.23 2.10 1.98 1.85 1.63 1.48 1.27 1.20 1.51 1.62 1.52 1.41 1.37 1.32 1.08 0.98 0.90 0.82 0.80 0.75 0.70 0.64 0.65 0.70 0.84 0.96 1.04 1.12 1.27 1.34 1.44 1.50
1.21 1.35 1.53 1.81 2.15 2.36 2.43 2.31 2.16 2.01 1.88 1.72 1.40 1.16 1.28 1.63 1.77 1.70 1.47 1.29 1.15 1.07 0.95 0.85 0.79 0.73 0.68 0.66 0.65 0.65 0.66 0.71 0.83 0.89 0.94 1.06 1.27 1.44
1.19 1.25 1.31 1.50 1.70 1.90 2.08 2.21 2.19 2.17 2.15 1.91 1.60 1.33 1.27 1.40 1.66 1.68 1.60 1.55 1.32 1.24 1.24 1.12 0.98 0.88 0.78 0.69 0.68 0.65 0.62 0.61 0.65 0.75 0.82 0.87 0.99 1.16
0.97 1.07 1.17 1.22 1.37 1.51 1.62 1.81 2.02 2.26 2.34 2.19 1.92 1.60 1.47 1.37 1.47 1.63 1.70 1.66 1.57 1.38 1.33 1.22 1.20 1.14 1.02 0.86 0.73 0.67 0.67 0.70 0.69 0.70 0.76 0.81 0.84 0.91
0.89 0.90 0.97 0.99 1.05 1.23 1.28 1.50 1.82 2.09 2.21 2.28 2.15 1.85 1.58 1.40 1.19 1.30 1.56 1.78 1.80 1.71 1.70 1.45 1.31 1.17 1.09 1.05 0.97 0.85 0.75 0.72 0.72 0.73 0.78 0.82 0.90 0.94
0.88 0.87 0.89 0.84 0.82 0.89 1.02 1.15 1.45 1.66 1.80 1.88 1.90 1.75 1.53 1.40 1.35 1.31 1.39 1.53 1.59 1.49 1.54 1.61 1.54 1.38 1.27 1.15 1.16 1.20 1.11 1.00 0.92 0.89 0.89 0.89 0.96 1.04
0.91 0.94 0.90 0.84 0.89 0.90 0.92 0.93 1.00 1.18 1.39 1.60 1.63 1.53 1.58 1.49 1.41 1.31 1.32 1.34 1.33 1.44 1.51 1.59 1.57 1.46 1.38 1.36 1.39 1.29 1.23 1.14 1.05 1.01 1.00 0.98 0.96 0.98
0.88 0.84 0.91 0.92 0.94 1.01 0.94 1.01 0.97 0.95 1.03 1.08 1.22 1.42 1.57 1.74 1.71 1.60 1.61 1.55 1.46 1.56 1.58 1.53 1.44 1.36 1.27 1.24 1.30 1.18 1.09 1.05 1.03 1.01 0.97 0.95 0.92 0.92
0.87 0.87 0.94 0.98 1.11 1.16 1.07 1.12 1.08 1.05 1.02 1.12 1.22 1.32 1.41 1.52 1.67 1.72 1.67 1.64 1.50 1.43 1.44 1.39 1.29 1.30 1.30 1.18 1.11 1.10 1.01 0.96 0.93 0.92 0.92 0.91 0.93 1.01
1.00 0.99 1.18 1.13 1.11 1.06 1.03 1.18 1.15 1.01 0.94 0.98 1.03 1.11 1.15 1.25 1.37 1.42 1.54 1.61 1.52 1.38 1.21 1.19 1.20 1.24 1.28 1.17 1.06 0.99 0.96 0.97 0.93 0.89 0.88 0.91 1.00 1.02
1.10 1.06 1.00 1.13 1.07 0.99 0.99 1.04 1.18 1.07 1.00 1.04 1.03 1.04 1.06 1.09 1.13 1.19 1.31 1.44 1.49 1.34 1.18 1.22 1.21 1.19 1.10 0.97 0.96 0.93 0.90 0.90 0.90 0.90 0.94 0.98 1.03 1.02
1.09 0.99 0.88 1.11 1.07 0.98 0.90 0.93 1.07 1.14 1.14 1.18 1.16 1.07 0.99 0.96 0.95 1.01 1.10 1.21 1.31 1.30 1.27 1.26 1.23 1.17 1.13 1.00 0.88 0.87 0.89 0.91 0.92 0.88 0.86 1.03 1.11 1.17
0.94 0.96 0.97 1.01 0.93 0.89 0.98 1.01 1.04 1.06 1.15 1.20 1.09 0.94 0.87 0.86 0.92 1.04 1.15 1.23 1.31 1.27 1.21 1.21 1.23 1.26 1.26 1.13 0.99 0.92 0.93 0.91 0.90 0.88 0.85 0.88 0.94 1.08
0.76 0.79 0.83 0.80 0.79 0.84 0.90 1.00 1.05 1.10 1.12 1.06 0.95 0.82 0.83 0.88 0.91 0.94 1.07 1.20 1.33 1.32 1.29 1.34 1.36 1.37 1.39 1.23 1.13 1.05 1.02 0.99 0.95 0.97 0.95 0.91 0.87 0.90
0.86 0.77 0.78 0.78 0.77 0.77 0.82 0.85 0.90 0.91 0.94 0.92 0.89 0.87 0.86 0.89 0.90 0.89 0.98 1.04 1.05 1.04 1.08 1.18 1.36 1.49 1.48 1.43 1.36 1.18 1.14 1.12 1.14 1.18 1.16 1.07 0.91 0.85
1.21 1.16 1.14 1.07 0.97 0.86 0.79 0.74 0.72 0.75 0.79 0.83 0.85 0.82 0.83 0.88 0.93 0.94 0.98 1.03 1.02 0.92 0.88 0.93 1.14 1.42 1.58 1.51 1.35 1.24 1.21 1.15 1.15 1.30 1.32 1.23 1.01 0.88
1.23 1.22 1.19 1.05 0.91 0.82 0.72 0.63 0.58 0.61 0.68 0.69 0.72 0.75 0.76 0.81 0.88 0.91 0.92 0.97 1.00 0.95 0.90 0.91 1.02 1.18 1.34 1.26 1.10 1.02 1.08 1.15 1.23 1.31 1.35 1.25 1.04 0.93
0.90 0.91 0.84 0.77 0.70 0.59 0.55 0.52 0.49 0.54 0.62 0.64 0.65 0.66 0.68 0.73 0.76 0.84 0.86 0.87 0.92 0.92 0.89 0.86 0.85 0.93 1.04 1.03 0.95 0.85 0.88 1.01 1.11 1.13 1.14 1.17 1.13 1.17
0.56 0.52 0.46 0.45 0.46 0.44 0.42 0.42 0.42 0.46 0.53 0.61 0.63 0.62 0.62 0.65 0.69 0.74 0.81 0.89 0.89 0.88 0.88 0.80 0.75 0.87 0.97 1.08 1.05 0.81 0.74 0.89 1.01 1.04 1.09 1.22 1.23 1.15
0.31 0.31 0.30 0.30 0.34 0.34 0.37 0.38 0.39 0.42 0.47 0.54 0.58 0.61 0.61 0.60 0.63 0.70 0.74 0.77 0.76 0.75 0.76 0.77 0.81 0.90 0.96 1.02 0.99 0.85 0.77 0.80 1.00 1.21 1.17 1.16 1.13 1.03
0.27 0.28 0.26 0.29 0.32 0.33 0.36 0.40 0.44 0.46 0.48 0.55 0.57 0.58 0.62 0.63 0.64 0.67 0.71 0.71 0.73 0.74 0.75 0.79 0.83 0.90 0.95 0.98 1.02 1.00 0.97 0.91 0.93 1.04 1.08 1.16 1.06 0.86

GEFSNE_prec_meanprecacc_210.txt.gz
Total_Precipitation_Accumulation
2.03 2.16 2.30 2.40 2.31 2.10 2.01 1.98 1.95 1.77 1.56 1.44 1.28 1.11 1.22 1.33 1.52 1.36 1.22 1.21 1.02 0.84 0.77 0.84 0.96 1.00 1.14 1.27 1.50 1.83 2.25 2.45 2.54 2.33 2.05 1.93 1.88 1.77
1.84 1.97 2.00 2.06 2.25 2.21 2.02 1.99 1.91 1.80 1.66 1.47 1.37 1.23 1.41 1.33 1.45 1.30 1.30 1.36 1.07 0.94 0.86 0.82 0.83 0.77 0.76 0.80 0.83 0.99 1.38 1.52 1.69 1.80 1.77 1.65 1.64 1.62
1.45 1.57 1.73 1.99 2.29 2.30 2.24 2.11 1.98 1.85 1.63 1.48 1.27 1.20 1.51 1.62 1.52 1.41 1.37 1.32 1.08 0.98 0.90 0.82 0.80 0.75 0.70 0.64 0.65 0.70 0.84 0.96 1.06 1.15 1.30 1.37 1.47 1.52
1.22 1.35 1.53 1.81 2.16 2.37 2.44 2.32 2.16 2.01 1.88 1.73 1.40 1.17 1.29 1.63 1.77 1.70 1.47 1.29 1.15 1.07 0.95 0.85 0.79 0.73 0.68 0.66 0.65 0.65 0.66 0.71 0.84 0.90 0.95 1.09 1.30 1.47
1.20 1.25 1.31 1.50 1.70 1.91 2.09 2.21 2.20 2.17 2.15 1.91 1.60 1.34 1.27 1.40 1.66 1.68 1.60 1.55 1.32 1.24 1.24 1.12 0.98 0.88 0.78 0.69 0.68 0.65 0.62 0.61 0.65 0.76 0.83 0.89 1.02 1.19
0.98 1.08 1.17 1.22 1.37 1.51 1.62 1.82 2.03 2.27 2.35 2.20 1.92 1.60 1.48 1.37 1.47 1.63 1.70 1.66 1.57 1.38 1.33 1.22 1.20 1.14 1.02 0.86 0.73 0.67 0.67 0.70 0.70 0.70 0.76 0.82 0.85 0.92
0.89 0.90 0.97 0.99 1.05 1.23 1.28 1.50 1.83 2.10 2.21 2.28 2.15 1.85 1.58 1.40 1.20 1.30 1.56 1.78 1.80 1.71 1.70 1.45 1.31 1.17 1.09 1.05 0.97 0.85 0.76 0.72 0.72 0.73 0.78 0.83 0.90 0.95
0.88 0.88 0.89 0.84 0.82 0.89 1.02 1.15 1.45 1.67 1.81 1.89 1.91 1.75 1.53 1.40 1.35 1.31 1.39 1.53 1.59 1.49 1.54 1.61 1.54 1.38 1.28 1.15 1.17 1.20 1.12 1.00 0.92 0.89 0.89 0.90 0.97 1.05
0.91 0.94 0.90 0.84 0.89 0.90 0.92 0.93 1.00 1.18 1.39 1.60 1.63 1.53 1.59 1.50 1.41 1.31 1.32 1.34 1.33 1.44 1.51 1.59 1.57 1.46 1.38 1.36 1.39 1.29 1.23 1.14 1.06 1.01 1.00 0.99 0.97 0.99
0.89 0.84 0.91 0.92 0.94 1.01 0.94 1.01 0.97 0.95 1.04 1.09 1.22 1.43 1.57 1.74 1.71 1.61 1.61 1.55 1.46 1.56 1.58 1.53 1.44 1.36 1.27 1.25 1.30 1.18 1.10 1.05 1.03 1.01 0.98 0.96 0.93 0.93
0.87 0.87 0.94 0.98 1.11 1.16 1.07 1.12 1.08 1.05 1.02 1.12 1.22 1.33 1.41 1.53 1.68 1.72 1.68 1.64 1.50 1.43 1.44 1.39 1.29 1.30 1.30 1.19 1.11 1.11 1.01 0.97 0.94 0.92 0.92 0.91 0.94 1.02
1.00 0.99 1.18 1.13 1.11 1.06 1.04 1.18 1.15 1.01 0.94 0.98 1.03 1.12 1.16 1.25 1.38 1.43 1.55 1.62 1.53 1.38 1.21 1.20 1.20 1.24 1.28 1.17 1.06 1.00 0.96 0.97 0.93 0.89 0.88 0.91 1.00 1.03
1.10 1.06 1.00 1.13 1.07 0.99 0.99 1.04 1.18 1.07 1.00 1.04 1.04 1.04 1.06 1.10 1.14 1.20 1.32 1.45 1.50 1.34 1.18 1.22 1.21 1.19 1.10 0.97 0.97 0.95 0.91 0.90 0.91 0.90 0.94 0.98 1.04 1.03
1.09 0.99 0.89 1.12 1.08 0.98 0.90 0.93 1.07 1.14 1.14 1.18 1.16 1.07 0.99 0.96 0.95 1.02 1.11 1.22 1.31 1.30 1.27 1.26 1.23 1.18 1.14 1.01 0.90 0.89 0.91 0.93 0.94 0.90 0.87 1.03 1.11 1.18
0.95 0.96 0.98 1.01 0.93 0.89 0.98 1.01 1.04 1.06 1.15 1.21 1.09 0.94 0.87 0.86 0.92 1.04 1.15 1.23 1.31 1.27 1.21 1.21 1.23 1.28 1.28 1.15 1.01 0.94 0.95 0.93 0.92 0.89 0.86 0.88 0.94 1.09
0.77 0.80 0.83 0.80 0.80 0.84 0.90 1.00 1.05 1.10 1.12 1.06 0.95 0.82 0.83 0.88 0.91 0.94 1.08 1.20 1.34 1.33 1.29 1.34 1.36 1.38 1.40 1.24 1.14 1.06 1.03 0.99 0.96 0.97 0.96 0.91 0.88 0.92
0.87 0.78 0.79 0.79 0.77 0.77 0.82 0.86 0.90 0.91 0.94 0.92 0.89 0.87 0.86 0.89 0.90 0.89 0.98 1.05 1.06 1.04 1.08 1.18 1.36 1.50 1.48 1.43 1.36 1.19 1.14 1.13 1.14 1.18 1.17 1.07 0.92 0.86
1.22 1.17 1.15 1.07 0.97 0.87 0.79 0.74 0.73 0.75 0.79 0.84 0.85 0.83 0.83 0.88 0.93 0.94 0.98 1.04 1.02 0.92 0.88 0.93 1.14 1.43 1.58 1.51 1.36 1.24 1.21 1.15 1.15 1.30 1.32 1.23 1.02 0.90
1.24 1.23 1.20 1.05 0.92 0.83 0.73 0.63 0.59 0.61 0.69 0.69 0.72 0.75 0.76 0.81 0.88 0.91 0.92 0.97 1.00 0.95 0.90 0.91 1.02 1.19 1.35 1.27 1.11 1.02 1.09 1.15 1.23 1.31 1.35 1.26 1.06 0.95
0.91 0.92 0.85 0.79 0.72 0.60 0.55 0.53 0.50 0.54 0.63 0.65 0.65 0.66 0.68 0.74 0.77 0.84 0.87 0.87 0.93 0.93 0.90 0.86 0.86 0.93 1.05 1.03 0.95 0.86 0.88 1.02 1.12 1.14 1.15 1.18 1.15 1.20
0.57 0.53 0.48 0.47 0.48 0.45 0.43 0.42 0.43 0.47 0.54 0.61 0.63 0.62 0.62 0.66 0.70 0.75 0.82 0.90 0.90 0.90 0.90 0.81 0.76 0.87 0.98 1.08 1.05 0.82 0.74 0.89 1.01 1.05 1.10 1.23 1.24 1.16
0.33 0.33 0.32 0.32 0.34 0.35 0.37 0.39 0.39 0.42 0.47 0.54 0.58 0.62 0.62 0.61 0.64 0.71 0.76 0.79 0.79 0.77 0.77 0.78 0.82 0.91 0.97 1.03 0.99 0.85 0.78 0.81 1.01 1.23 1.19 1.17 1.14 1.05
0.29 0.29 0.28 0.30 0.33 0.34 0.37 0.41 0.44 0.47 0.48 0.56 0.57 0.59 0.63 0.64 0.65 0.68 0.72 0.72 0.75 0.76 0.76 0.80 0.84 0.91 0.96 0.99 1.03 1.01 0.98 0.93 0.95 1.07 1.11 1.19 1.08 0.88

GEFSNE_prec_meanprecacc_216.txt.gz
Total_Precipitation_Accumulation
2.04 2.18 2.33 2.43 2.34 2.11 2.02 1.99 1.96 1.78 1.58 1.45 1.29 1.12 1.23 1.35 1.53 1.38 1.25 1.23 1.03 0.84 0.78 0.85 0.96 1.00 1.14 1.27 1.50 1.83 2.25 2.45 2.54 2.33 2.06 1.94 1.89 1.78
1.85 1.99 2.02 2.09 2.27 2.22 2.02 1.99 1.92 1.80 1.67 1.48 1.37 1.24 1.42 1.34 1.47 1.32 1.33 1.38 1.08 0.94 0.86 0.82 0.83 0.77 0.76 0.80 0.83 0.99 1.38 1.52 1.70 1.80 1.79 1.66 1.66 1.63
1.45 1.58 1.73 1.99 2.30 2.31 2.24 2.11 1.99 1.85 1.64 1.48 1.28 1.20 1.52 1.62 1.53 1.41 1.38 1.33 1.08 0.98 0.90 0.83 0.80 0.75 0.70 0.64 0.65 0.70 0.84 0.97 1.06 1.15 1.30 1.38 1.48 1.53
1.22 1.35 1.53 1.81 2.16 2.37 2.44 2.32 2.16 2.01 1.89 1.73 1.41 1.17 1.29 1.63 1.77 1.71 1.47 1.29 1.16 1.07 0.95 0.85 0.80 0.73 0.68 0.66 0.65 0.65 0.66 0.71 0.84 0.90 0.96 1.09 1.31 1.48
1.20 1.25 1.31 1.50 1.70 1.91 2.09 2.21 2.20 2.17 2.16 1.92 1.60 1.34 1.27 1.41 1.66 1.68 1.60 1.55 1.32 1.24 1.24 1.12 0.98 0.88 0.78 0.69 0.68 0.65 0.62 0.61 0.65 0.76 0.83 0.89 1.02 1.21
0.98 1.08 1.17 1.22 1.37 1.51 1.63 1.82 2.04 2.28 2.35 2.20 1.93 1.60 1.48 1.37 1.48 1.63 1.70 1.66 1.57 1.38 1.33 1.22 1.20 1.14 1.02 0.86 0.73 0.67 0.68 0.70 0.70 0.71 0.76 0.82 0.85 0.93
0.89 0.90 0.97 0.99 1.05 1.23 1.28 1.51 1.84 2.10 2.22 2.29 2.16 1.85 1.58 1.40 1.20 1.30 1.56 1.78 1.80 1.71 1.70 1.45 1.31 1.17 1.09 1.05 0.97 0.85 0.76 0.72 0.72 0.73 0.78 0.83 0.90 0.95
0.88 0.88 0.89 0.84 0.82 0.89 1.02 1.15 1.46 1.67 1.81 1.89 1.91 1.76 1.53 1.40 1.35 1.32 1.39 1.54 1.60 1.49 1.54 1.61 1.54 1.38 1.28 1.15 1.17 1.20 1.12 1.00 0.92 0.90 0.90 0.90 0.97 1.06
0.92 0.94 0.90 0.84 0.89 0.90 0.92 0.93 1.00 1.18 1.39 1.60 1.63 1.53 1.59 1.50 1.42 1.32 1.33 1.35 1.33 1.44 1.52 1.59 1.57 1.46 1.38 1.36 1.39 1.29 1.23 1.14 1.06 1.01 1.00 0.99 0.97 1.00
0.89 0.84 0.91 0.92 0.94 1.01 0.94 1.01 0.97 0.95 1.04 1.09 1.22 1.43 1.58 1.74 1.72 1.61 1.61 1.55 1.46 1.56 1.58 1.53 1.44 1.36 1.27 1.25 1.30 1.18 1.10 1.05 1.03 1.01 0.98 0.96 0.93 0.94
0.87 0.87 0.94 0.98 1.11 1.16 1.07 1.12 1.08 1.05 1.02 1.13 1.22 1.33 1.41 1.53 1.68 1.72 1.68 1.64 1.50 1.43 1.45 1.39 1.29 1.31 1.30 1.19 1.11 1.11 1.02 0.97 0.94 0.93 0.92 0.92 0.94 1.03
1.01 1.00 1.18 1.13 1.11 1.06 1.04 1.19 1.15 1.01 0.94 0.98 1.04 1.12 1.16 1.25 1.38 1.43 1.56 1.63 1.53 1.39 1.22 1.20 1.21 1.24 1.28 1.18 1.07 1.00 0.97 0.98 0.93 0.89 0.89 0.92 1.01 1.04
1.10 1.06 1.00 1.13 1.07 1.00 0.99 1.05 1.18 1.07 1.00 1.04 1.04 1.04 1.06 1.10 1.14 1.20 1.32 1.45 1.50 1.35 1.19 1.22 1.21 1.20 1.11 0.97 0.97 0.95 0.91 0.91 0.91 0.91 0.95 1.00 1.05 1.04
1.09 0.99 0.89 1.12 1.08 0.99 0.91 0.93 1.08 1.15 1.14 1.18 1.16 1.08 1.00 0.96 0.95 1.02 1.11 1.22 1.32 1.31 1.27 1.27 1.23 1.18 1.14 1.01 0.90 0.89 0.91 0.93 0.94 0.91 0.89 1.05 1.12 1.18
0.95 0.97 0.98 1.02 0.94 0.90 0.98 1.01 1.04 1.07 1.16 1.21 1.10 0.95 0.88 0.86 0.92 1.04 1.15 1.24 1.31 1.27 1.21 1.21 1.24 1.28 1.28 1.15 1.01 0.94 0.95 0.93 0.92 0.90 0.86 0.89 0.95 1.10
0.77 0.80 0.84 0.81 0.80 0.84 0.91 1.00 1.05 1.11 1.12 1.06 0.95 0.83 0.83 0.89 0.91 0.95 1.08 1.21 1.34 1.33 1.29 1.34 1.36 1.38 1.40 1.25 1.14 1.06 1.03 0.99 0.96 0.98 0.96 0.91 0.88 0.92
0.89 0.79 0.80 0.80 0.78 0.78 0.82 0.86 0.91 0.92 0.95 0.93 0.89 0.88 0.87 0.89 0.90 0.89 0.98 1.05 1.06 1.05 1.08 1.18 1.36 1.50 1.48 1.43 1.36 1.19 1.14 1.13 1.14 1.18 1.17 1.08 0.92 0.86
1.23 1.18 1.15 1.07 0.98 0.88 0.81 0.76 0.75 0.76 0.79 0.84 0.85 0.84 0.84 0.89 0.95 0.96 1.00 1.05 1.03 0.93 0.89 0.93 1.15 1.43 1.58 1.51 1.36 1.24 1.21 1.15 1.16 1.30 1.32 1.24 1.03 0.90
1.25 1.23 1.21 1.06 0.93 0.86 0.75 0.65 0.60 0.63 0.70 0.71 0.73 0.77 0.78 0.83 0.90 0.92 0.93 0.98 1.01 0.96 0.91 0.92 1.04 1.20 1.36 1.28 1.11 1.02 1.09 1.15 1.24 1.32 1.36 1.27 1.07 0.95
0.92 0.93 0.86 0.80 0.74 0.62 0.57 0.55 0.52 0.56 0.65 0.67 0.68 0.68 0.70 0.75 0.78 0.86 0.88 0.89 0.94 0.94 0.91 0.87 0.88 0.96 1.07 1.05 0.96 0.86 0.89 1.02 1.12 1.15 1.15 1.19 1.15 1.20
0.58 0.54 0.49 0.49 0.49 0.46 0.45 0.44 0.45 0.49 0.56 0.63 0.66 0.64 0.64 0.67 0.72 0.76 0.83 0.92 0.92 0.91 0.91 0.82 0.77 0.89 0.99 1.10 1.07 0.83 0.75 0.90 1.02 1.05 1.11 1.23 1.24 1.17
0.34 0.34 0.33 0.33 0.36 0.37 0.39 0.41 0.41 0.45 0.50 0.56 0.60 0.65 0.65 0.64 0.66 0.73 0.77 0.80 0.80 0.78 0.78 0.79 0.83 0.92 0.98 1.05 1.01 0.87 0.79 0.82 1.02 1.23 1.20 1.18 1.14 1.06
0.30 0.31 0.29 0.31 0.35 0.36 0.40 0.43 0.47 0.49 0.51 0.58 0.60 0.62 0.66 0.67 0.67 0.70 0.74 0.74 0.77 0.78 0.78 0.82 0.86 0.93 0.98 1.01 1.05 1.03 0.99 0.93 0.96 1.08 1.12 1.20 1.09 0.88